Greenville Downtown, SC

12:56 AM EST on December 13, 2017 (GMT -0500)
Greenville Downtown

Weather History for KGMU - March, 2015

Change the Weather History Date:

Sunday, March 1, 2015

  Actual Average Record
Temperature  
Mean Temperature 40 °F -  
Max Temperature 46 °F 57 °F 79 °F (2012)
Min Temperature 33 °F 38 °F 28 °F (1993)
Degree Days  
Heating Degree Days 26    
Moisture  
Dew Point 33 °F    
Average Humidity 84    
Maximum Humidity 93    
Minimum Humidity 57    
Precipitation  
Precipitation 0.08 in - - ()
Sea Level Pressure  
Sea Level Pressure 30.50 in    
Wind  
Wind Speed 7 mph (NE)    
Max Wind Speed 12 mph    
Max Gust Speed -    
Visibility 5 miles    
Events Rain    
Averages and records for this station are not official NWS values.
T = Trace of Precipitation, MM = Missing Value Source: NWS Daily Summary

Daily Weather History Graph

Daily Weather History Graph

Search for Another Location

Airport or City:

Trip Planner

Search our weather history database for the weather conditions in past years. The results will help you decide how hot, cold, wet, or windy it might be!

Date:

Astronomy

Mar. 01, 2015 Rise Set
Actual Time 6:59 AM EST 6:24 PM EST
Civil Twilight 6:33 AM EST 6:50 PM EST
Nautical Twilight 6:04 AM EST 7:19 PM EST
Astronomical Twilight 5:35 AM EST 7:48 PM EST
Moon 3:04 PM EST (3/1) 4:15 AM EST (3/1)
Length of Visible Light 12h 16m
Length of Day
11h 25m
Waxing Gibbous, 86% of the Moon is Illuminated
Mar 1
Waxing Gibbous
Mar 5
Full
Mar 13
Last Quarter
Mar 20
New
Mar 27
First Quarter

Hourly Weather History & Observations

Time (EST) Temp. Windchill Dew Point Humidity Pressure Visibility Wind Dir Wind Speed Gust Speed Precip Events Conditions
12:53 AM 37.0 °F 30.4 °F 23.0 °F 57% 30.63 in 10.0 mi NNE 9.2 mph - 0.00 in Rain Light Rain
1:18 AM 36.0 °F 29.0 °F 24.1 °F 62% 30.60 in 10.0 mi NE 9.2 mph - 0.00 in Rain Light Rain
1:53 AM 36.0 °F 29.6 °F 24.1 °F 62% 30.61 in 10.0 mi NE 8.1 mph - 0.00 in   Overcast
2:53 AM 34.0 °F 28.0 °F 27.0 °F 75% 30.60 in 10.0 mi NE 6.9 mph - 0.02 in   Overcast
3:23 AM 34.0 °F 28.8 °F 28.0 °F 79% 30.56 in 10.0 mi NE 5.8 mph - 0.00 in Rain Light Rain
3:53 AM 33.1 °F 27.7 °F 28.0 °F 82% 30.58 in 4.0 mi NE 5.8 mph - 0.01 in Rain Light Rain
4:53 AM 33.1 °F 24.4 °F 28.0 °F 82% 30.56 in 7.0 mi NNE 11.5 mph - 0.01 in Rain Light Rain
5:53 AM 33.1 °F 26.1 °F 28.0 °F 82% 30.56 in 8.0 mi NE 8.1 mph - 0.00 in Rain Light Rain
6:22 AM 33.1 °F 26.1 °F 28.0 °F 82% 30.52 in 9.0 mi NE 8.1 mph - 0.00 in   Overcast
6:46 AM 33.1 °F 26.9 °F 28.9 °F 85% 30.55 in 2.5 mi North 6.9 mph - 0.02 in Rain Rain
6:53 AM 33.1 °F 26.9 °F 28.9 °F 85% 30.57 in 2.5 mi NNE 6.9 mph - 0.02 in Rain Rain
6:56 AM 33.1 °F 26.9 °F 28.9 °F 85% 30.54 in 2.5 mi NE 6.9 mph - 0.01 in Rain Light Rain
7:01 AM 33.1 °F 27.7 °F 30.0 °F 89% 30.54 in 2.5 mi NE 5.8 mph - 0.01 in Rain Light Rain
7:12 AM 33.1 °F 26.1 °F 30.0 °F 89% 30.54 in 3.0 mi NE 8.1 mph - 0.01 in Rain Light Rain
7:19 AM 33.1 °F 26.1 °F 30.0 °F 89% 30.53 in 2.5 mi ENE 8.1 mph - 0.02 in Rain Light Rain
7:32 AM 33.1 °F 24.9 °F 30.0 °F 89% 30.53 in 2.5 mi NE 10.4 mph - 0.02 in Rain Light Rain
7:41 AM 33.1 °F 26.9 °F 30.0 °F 89% 30.53 in 2.5 mi NE 6.9 mph - 0.02 in Rain Light Rain
7:53 AM 33.1 °F 26.1 °F 30.0 °F 89% 30.56 in 2.5 mi ENE 8.1 mph - 0.02 in   Overcast
8:12 AM 34.0 °F 28.8 °F 30.9 °F 89% 30.53 in 2.5 mi NE 5.8 mph - N/A   Overcast
8:24 AM 34.0 °F 28.8 °F 30.9 °F 89% 30.53 in 2.5 mi NE 5.8 mph - N/A   Overcast
8:53 AM 35.1 °F 31.0 °F 32.0 °F 89% 30.56 in 2.5 mi NE 4.6 mph - N/A   Overcast
9:53 AM 37.0 °F 32.4 °F 34.0 °F 89% 30.55 in 3.0 mi ENE 5.8 mph - N/A   Overcast
10:29 AM 39.0 °F 32.3 °F 36.0 °F 89% 30.50 in 4.0 mi East 10.4 mph - N/A   Overcast
10:53 AM 39.0 °F 34.8 °F 35.1 °F 86% 30.53 in 5.0 mi North 5.8 mph - N/A   Overcast
11:53 AM 41.0 °F 38.0 °F 36.0 °F 82% 30.51 in 6.0 mi NNE 4.6 mph - N/A   Haze
12:53 PM 42.1 °F 40.2 °F 37.0 °F 82% 30.47 in 6.0 mi NE 3.5 mph - N/A   Haze
1:53 PM 42.1 °F - 37.9 °F 85% 30.45 in 6.0 mi Calm Calm - 0.00 in Rain Light Rain
2:53 PM 43.0 °F - 39.0 °F 86% 30.43 in 4.0 mi Calm Calm - 0.00 in   Overcast
3:53 PM 44.1 °F - 39.0 °F 82% 30.40 in 7.0 mi Calm Calm - N/A   Overcast
4:53 PM 46.0 °F - 39.9 °F 79% 30.40 in 8.0 mi Calm Calm - N/A   Overcast
5:53 PM 45.0 °F 42.6 °F 39.9 °F 82% 30.38 in 7.0 mi South 4.6 mph - N/A   Overcast
6:53 PM 45.0 °F 42.6 °F 41.0 °F 86% 30.38 in 7.0 mi South 4.6 mph - N/A   Overcast
7:53 PM 44.1 °F 40.1 °F 41.0 °F 89% 30.38 in 7.0 mi SSW 6.9 mph - N/A   Overcast
8:53 PM 44.1 °F 40.1 °F 41.0 °F 89% 30.38 in 5.0 mi WSW 6.9 mph - N/A   Overcast
9:53 PM 44.1 °F 39.5 °F 41.0 °F 89% 30.36 in 6.0 mi SW 8.1 mph - N/A   Overcast
10:53 PM 43.0 °F 37.2 °F 41.0 °F 93% 30.35 in 5.0 mi WSW 10.4 mph - N/A   Overcast
11:53 PM 43.0 °F 37.2 °F 41.0 °F 93% 30.35 in 4.0 mi West 10.4 mph - N/A   Overcast